Regional Weather Roundup
Issued by NWS

Current Version | Previous Version | Text Only | Print | Product List | Glossary Off
Versions: 1 2 3 4 5 6 7 8 9 10 11 12 13 14 15 16 17 18 19 20 21 22 23 24 25 26 27 28

000
ASUS44 KBMX 271610
RWRAL

ALABAMA REGIONAL WEATHER ROUNDUP
NATIONAL WEATHER SERVICE BIRMINGHAM AL
1100 AM CDT MON MAR 27 2017

NOTE: "FAIR" INDICATES FEW OR NO CLOUDS BELOW 12,000 FEET
WITH NO SIGNIFICANT WEATHER AND/OR OBSTRUCTIONS TO VISIBILITY.

THE REMARK "TC" DENOTES TEMPERATURE IN DEGREES CELSIUS.

ALZ001>011-014-016>018-020-271700-
NORTH ALABAMA

CITY           SKY/WX    TMP DP  RH WIND       PRES   REMARKS
MUSCLE SHOALS  CLOUDY    71  61  70 S14       29.99S
HUNTSVILLE     CLOUDY    72  63  73 SW14      30.02S
DECATUR        CLOUDY    70  63  78 S15G21    30.01F
HALEYVILLE     CLOUDY    69  63  81 S13       30.02F
GADSDEN        MOSUNNY   74  63  68 S9        30.04F
$$

ALZ012-013-022-023-030>036-040>044-271700-
WEST CENTRAL ALABAMA

CITY           SKY/WX    TMP DP  RH WIND       PRES   REMARKS
TUSCALOOSA     CLOUDY    76  66  71 S10G20    30.01F
$$

ALZ015-024>027-033>036-040>044-271700-
CENTRAL ALABAMA

CITY           SKY/WX    TMP DP  RH WIND       PRES   REMARKS
BIRMINGHAM     PTSUNNY   74  62  66 S13       30.06F
MONTGOMERY     MOSUNNY   76  61  59 S9        30.08F
SHELBY CO ARPT PTSUNNY   74  65  73 S8        30.04F
MAXWELL AFB    MOSUNNY   75  65  70 S10       30.06F
GREENVILLE     FAIR      75  61  61 SE9       30.07F
$$

ALZ019-021-028-029-037-038-045>048-271700-
EAST CENTRAL ALABAMA

CITY           SKY/WX    TMP DP  RH WIND       PRES   REMARKS
ANNISTON       PTSUNNY   73  62  68 S7G18     30.07F
ALEXANDER CITY PTSUNNY   73  62  67 S9G16     30.08F
AUBURN         CLOUDY    74  63  68 S12G17    30.11F
$$

ALZ051>064-271700-
SOUTHWEST ALABAMA

CITY           SKY/WX    TMP DP  RH WIND       PRES   REMARKS
MOBILE         PTSUNNY   77  66  68 SE14      30.06S
BROOKLEY FIELD MOSUNNY   76  71  85 SE14      30.07S
EVERGREEN      PTSUNNY   75  64  68 S8        30.08F
$$

ALZ049-050-065>069-271700-
SOUTHEAST ALABAMA

CITY           SKY/WX    TMP DP  RH WIND       PRES   REMARKS
DOTHAN         SUNNY     71  64  78 SE6       30.15F
OZARK          SUNNY     72  63  72 S6        30.11F
TROY           MOSUNNY   74  62  66 S7        30.11F
EUFAULA        FAIR      76  61  59 MISG      30.11F
$$




USA.gov is the U.S. government's official web portal to all federal, state and local government web resources and services.